Погода в Заре

Россия / Свердловская область     56°44′34″N   57°57′39″E
темп.,
°C
ветер,
м/с
пор.,
м/с
влажн.,
%
обл.,
%
осадки,
мм/ч
давл.,
гПа
погр.,
м
20 апреля, вт
вт2023:00−1в11500 0.0 103410
02:00−2юз11520 0.0 103410
05:00−2зюз115347 0.0 103510
08:00+1сз23465 0.0 1035275
11:00+4сз34365 0.0 10341129
14:00+7сз45325 0.0 10331349
17:00+7сз45330 0.0 10321387
20:00+4сз22510 0.0 103117
21 апреля, ср
ср2123:00+1ссз11620 0.0 103210
02:000зсз11665 0.0 103210
05:000зсз00670 0.0 103310
08:00+3зюз11560 0.0 1033142
11:00+8сз11420 0.0 1032773
14:00+11юв12357 0.0 10311128
17:00+11ююв3334100 0.0 10301198
20:00+8ююв225045 0.0 103120
22 апреля, чт
чт2223:00+5вюв2256100 0.0 103113
02:00+4вюв226330 0.0 103118
05:00+3ююв2272100 0.0 103226
08:00+5юв2966100 0.0 1032323
11:00+8ю41049100 0.0 1031946
14:00+12ю5833100 0.0 10311561
17:00+13ююз583383 0.0 10301897
20:00+9зюз2551100 0.0 1030116
23 апреля, пт
пт2323:00+6юз2367100 0.0 103165
02:00+5юз3880100 0.0 1031613
05:00+4ююв2888100 0.7 1031666
08:00+5ю4992100 0.9 1030845
11:00+4ю3696100 1.3 1030690
14:00+5ююв3492100 0.5 1030788
17:00+5ю2592100 0.8 1030766
20:00+5ююв1193100 0.0 103022
24 апреля, сб
сб2423:00+4всв1194100 0.0 102925
02:00+4св2494100 0.0 1027107
05:00+4всв2494100 0.0 1026110
08:00+5вюв2496100 0.5 1024120
11:00+6вюв2696100 1.1 1023302
14:00+8вюв4780100 0.3 10211082
17:00+9юв4773100 0.7 10201282
20:00+6вюв4791100 0.6 1019960